Time,TemperatureF,DewpointF,PressureIn,WindDirection,WindDirectionDegrees,WindSpeedMPH,WindSpeedGustMPH,Humidity,HourlyPrecipIn,Conditions,Clouds,dailyrainin,SoftwareType,DateUTC
2013-06-02 00:13:00,72.5,71.9,29.68,South,180,2.2,-999.0,98,-99.99,,,0.00,Acu-Link.com,2013-06-02 04:13:00,
2013-06-02 00:28:00,72.1,71.5,29.69,WNW,292,0.0,-999.0,98,-99.99,,,0.00,Acu-Link.com,2013-06-02 04:28:00,
2013-06-02 00:43:00,72.0,71.4,29.69,NW,315,0.0,-999.0,98,-99.99,,,0.00,Acu-Link.com,2013-06-02 04:43:00,
2013-06-02 00:58:00,71.6,71.0,29.70,West,270,0.0,-999.0,98,-99.99,,,0.00,Acu-Link.com,2013-06-02 04:58:00,
2013-06-02 01:13:00,71.2,70.6,29.69,West,270,0.0,-999.0,98,-99.99,,,0.00,Acu-Link.com,2013-06-02 05:13:00,
2013-06-02 01:28:00,71.1,70.5,29.69,WNW,292,0.0,-999.0,98,-99.99,,,0.00,Acu-Link.com,2013-06-02 05:28:00,
2013-06-02 01:43:00,71.1,70.5,29.70,WNW,292,0.0,-999.0,98,-99.99,,,0.00,Acu-Link.com,2013-06-02 05:43:00,
2013-06-02 01:58:00,71.6,71.0,29.70,North,0,0.0,-999.0,98,-99.99,,,0.00,Acu-Link.com,2013-06-02 05:58:00,
2013-06-02 02:14:00,72.0,71.4,29.69,SSW,202,0.0,-999.0,98,-99.99,,,0.00,Acu-Link.com,2013-06-02 06:14:00,
2013-06-02 02:29:00,71.6,71.0,29.69,NE,45,0.0,-999.0,98,-99.99,,,0.00,Acu-Link.com,2013-06-02 06:29:00,
2013-06-02 02:44:00,71.4,70.8,29.69,NNW,337,0.0,-999.0,98,-99.99,,,0.00,Acu-Link.com,2013-06-02 06:44:00,
2013-06-02 02:59:00,71.6,71.0,29.69,East,90,0.0,-999.0,98,-99.99,,,0.00,Acu-Link.com,2013-06-02 06:59:00,
2013-06-02 03:14:00,71.6,71.0,29.68,SSE,157,0.0,-999.0,98,-99.99,,,0.00,Acu-Link.com,2013-06-02 07:14:00,
2013-06-02 03:29:00,71.8,71.2,29.68,SSW,202,1.7,-999.0,98,-99.99,,,0.00,Acu-Link.com,2013-06-02 07:29:00,
2013-06-02 03:44:00,71.8,71.2,29.68,NNW,337,0.0,-999.0,98,-99.99,,,0.00,Acu-Link.com,2013-06-02 07:44:00,
2013-06-02 03:59:00,71.6,71.0,29.67,ENE,67,0.0,-999.0,98,-99.99,,,0.00,Acu-Link.com,2013-06-02 07:59:00,
2013-06-02 04:16:00,71.6,71.0,29.67,NNE,22,0.0,-999.0,98,-99.99,,,0.00,Acu-Link.com,2013-06-02 08:16:00,
2013-06-02 04:31:00,71.4,70.8,29.67,West,270,0.0,-999.0,98,-99.99,,,0.00,Acu-Link.com,2013-06-02 08:31:00,
2013-06-02 04:46:00,71.2,70.6,29.67,South,180,2.2,-999.0,98,-99.99,,,0.00,Acu-Link.com,2013-06-02 08:46:00,
2013-06-02 05:01:00,71.4,70.8,29.66,South,180,1.7,-999.0,98,-99.99,,,0.00,Acu-Link.com,2013-06-02 09:01:00,
2013-06-02 05:16:00,71.2,70.6,29.65,SSE,157,0.0,-999.0,98,-99.99,,,0.00,Acu-Link.com,2013-06-02 09:16:00,
2013-06-02 05:31:00,71.2,70.6,29.65,WNW,292,2.2,-999.0,98,-99.99,,,0.00,Acu-Link.com,2013-06-02 09:31:00,
2013-06-02 05:46:00,71.2,70.6,29.65,SSW,202,2.2,-999.0,98,-99.99,,,0.00,Acu-Link.com,2013-06-02 09:46:00,
2013-06-02 06:01:00,71.2,70.6,29.64,South,180,2.2,-999.0,98,-99.99,,,0.00,Acu-Link.com,2013-06-02 10:01:00,
2013-06-02 06:17:00,71.2,70.6,29.64,SW,225,3.2,-999.0,98,-99.99,,,0.00,Acu-Link.com,2013-06-02 10:17:00,
2013-06-02 06:32:00,71.2,70.6,29.64,SSW,202,4.2,-999.0,98,-99.99,,,0.00,Acu-Link.com,2013-06-02 10:32:00,
2013-06-02 06:47:00,72.0,71.4,29.65,WSW,247,5.3,-999.0,98,-99.99,,,0.00,Acu-Link.com,2013-06-02 10:47:00,
2013-06-02 07:02:00,72.1,71.5,29.65,SW,225,6.8,-999.0,98,-99.99,,,0.00,Acu-Link.com,2013-06-02 11:02:00,
2013-06-02 07:17:00,72.3,71.7,29.64,SSW,202,4.2,-999.0,98,-99.99,,,0.00,Acu-Link.com,2013-06-02 11:17:00,
2013-06-02 07:32:00,72.3,71.7,29.65,SSW,202,5.8,-999.0,98,-99.99,,,0.00,Acu-Link.com,2013-06-02 11:32:00,
2013-06-02 07:47:00,72.1,71.5,29.65,SW,225,0.0,-999.0,98,-99.99,,,0.01,Acu-Link.com,2013-06-02 11:47:00,
2013-06-02 08:02:00,72.0,71.4,29.64,SSW,202,5.3,-999.0,98,-99.99,,,0.07,Acu-Link.com,2013-06-02 12:02:00,
2013-06-02 08:17:00,72.0,71.4,29.65,SSW,202,3.7,-999.0,98,-99.99,,,0.07,Acu-Link.com,2013-06-02 12:17:00,
2013-06-02 08:33:00,72.1,71.5,29.64,ESE,112,4.7,-999.0,98,-99.99,,,0.07,Acu-Link.com,2013-06-02 12:33:00,
2013-06-02 08:48:00,72.5,71.9,29.66,SSW,202,3.7,-999.0,98,-99.99,,,0.07,Acu-Link.com,2013-06-02 12:48:00,
2013-06-02 09:03:00,72.7,72.1,29.66,SSW,202,6.3,-999.0,98,-99.99,,,0.07,Acu-Link.com,2013-06-02 13:03:00,
2013-06-02 09:18:00,72.7,72.1,29.66,SSW,202,5.3,-999.0,98,-99.99,,,0.07,Acu-Link.com,2013-06-02 13:18:00,
2013-06-02 09:33:00,72.7,72.1,29.66,SW,225,2.7,-999.0,98,-99.99,,,0.07,Acu-Link.com,2013-06-02 13:33:00,
2013-06-02 09:48:00,72.9,72.3,29.66,NNW,337,0.0,-999.0,98,-99.99,,,0.07,Acu-Link.com,2013-06-02 13:48:00,
2013-06-02 10:03:00,72.1,71.5,29.67,ENE,67,1.1,-999.0,98,-99.99,,,0.07,Acu-Link.com,2013-06-02 14:03:00,
2013-06-02 10:18:00,72.3,71.7,29.66,South,180,1.7,-999.0,98,-99.99,,,0.08,Acu-Link.com,2013-06-02 14:18:00,
2013-06-02 10:33:00,74.7,74.1,29.66,SSW,202,3.2,-999.0,98,-99.99,,,0.10,Acu-Link.com,2013-06-02 14:33:00,
2013-06-02 10:49:00,75.2,74.3,29.66,ESE,112,0.0,-999.0,97,-99.99,,,0.10,Acu-Link.com,2013-06-02 14:49:00,
2013-06-02 11:04:00,79.0,75.5,29.65,NE,45,2.2,-999.0,89,-99.99,,,0.10,Acu-Link.com,2013-06-02 15:04:00,
2013-06-02 11:19:00,77.9,74.7,29.64,ESE,112,1.7,-999.0,90,-99.99,,,0.10,Acu-Link.com,2013-06-02 15:19:00,
2013-06-02 11:34:00,79.5,75.3,29.65,NNW,337,0.0,-999.0,87,-99.99,,,0.10,Acu-Link.com,2013-06-02 15:34:00,
2013-06-02 11:49:00,79.2,75.0,29.65,NW,315,2.2,-999.0,87,-99.99,,,0.10,Acu-Link.com,2013-06-02 15:49:00,
2013-06-02 12:04:00,78.3,74.8,29.65,WNW,292,1.1,-999.0,89,-99.99,,,0.10,Acu-Link.com,2013-06-02 16:04:00,
2013-06-02 12:19:00,80.4,75.5,29.65,SSW,202,0.0,-999.0,85,-99.99,,,0.10,Acu-Link.com,2013-06-02 16:19:00,
2013-06-02 12:34:00,81.1,74.7,29.65,SW,225,3.2,-999.0,81,-99.99,,,0.10,Acu-Link.com,2013-06-02 16:34:00,
2013-06-02 12:49:00,80.4,74.7,29.64,SSW,202,1.7,-999.0,83,-99.99,,,0.10,Acu-Link.com,2013-06-02 16:49:00,
2013-06-02 13:05:00,80.6,74.6,29.64,West,270,2.2,-999.0,82,-99.99,,,0.10,Acu-Link.com,2013-06-02 17:05:00,
2013-06-02 13:20:00,81.0,73.9,29.65,ENE,67,2.7,-999.0,79,-99.99,,,0.10,Acu-Link.com,2013-06-02 17:20:00,
2013-06-02 13:35:00,81.1,74.3,29.64,NW,315,1.1,-999.0,80,-99.99,,,0.10,Acu-Link.com,2013-06-02 17:35:00,
2013-06-02 13:50:00,81.1,74.3,29.64,NNE,22,1.7,-999.0,80,-99.99,,,0.10,Acu-Link.com,2013-06-02 17:50:00,
2013-06-02 14:05:00,81.9,75.1,29.64,NE,45,3.2,-999.0,80,-99.99,,,0.10,Acu-Link.com,2013-06-02 18:05:00,
2013-06-02 14:20:00,82.4,74.4,29.63,NE,45,3.2,-999.0,77,-99.99,,,0.10,Acu-Link.com,2013-06-02 18:20:00,
2013-06-02 14:35:00,83.1,75.1,29.62,East,90,1.7,-999.0,77,-99.99,,,0.10,Acu-Link.com,2013-06-02 18:35:00,
2013-06-02 14:50:00,81.9,74.7,29.63,SE,135,1.7,-999.0,79,-99.99,,,0.10,Acu-Link.com,2013-06-02 18:50:00,
2013-06-02 15:05:00,81.3,74.5,29.63,NNE,22,3.7,-999.0,80,-99.99,,,0.10,Acu-Link.com,2013-06-02 19:05:00,
2013-06-02 15:20:00,82.8,75.6,29.62,NNE,22,1.7,-999.0,79,-99.99,,,0.10,Acu-Link.com,2013-06-02 19:20:00,
2013-06-02 15:36:00,82.9,74.9,29.62,South,180,2.2,-999.0,77,-99.99,,,0.10,Acu-Link.com,2013-06-02 19:36:00,
2013-06-02 15:51:00,83.5,75.5,29.62,WSW,247,1.1,-999.0,77,-99.99,,,0.10,Acu-Link.com,2013-06-02 19:51:00,
2013-06-02 16:06:00,84.9,76.5,29.62,North,0,1.7,-999.0,76,-99.99,,,0.10,Acu-Link.com,2013-06-02 20:06:00,
2013-06-02 16:21:00,81.0,74.2,29.63,NNW,337,1.7,-999.0,80,-99.99,,,0.10,Acu-Link.com,2013-06-02 20:21:00,
2013-06-02 16:36:00,79.3,74.0,29.61,East,90,0.0,-999.0,84,-99.99,,,0.10,Acu-Link.com,2013-06-02 20:36:00,
2013-06-02 16:51:00,79.3,75.1,29.62,NNW,337,0.0,-999.0,87,-99.99,,,0.10,Acu-Link.com,2013-06-02 20:51:00,
2013-06-02 17:07:00,78.6,75.7,29.61,South,180,1.7,-999.0,91,-99.99,,,0.10,Acu-Link.com,2013-06-02 21:07:00,
2013-06-02 17:22:00,77.4,76.2,29.60,SSE,157,2.2,-999.0,96,-99.99,,,0.10,Acu-Link.com,2013-06-02 21:22:00,
2013-06-02 17:37:00,78.8,75.6,29.59,SSW,202,2.2,-999.0,90,-99.99,,,0.10,Acu-Link.com,2013-06-02 21:37:00,
2013-06-02 17:52:00,78.6,75.1,29.58,WSW,247,0.0,-999.0,89,-99.99,,,0.10,Acu-Link.com,2013-06-02 21:52:00,
2013-06-02 18:07:00,79.7,75.8,29.59,ESE,112,0.0,-999.0,88,-99.99,,,0.10,Acu-Link.com,2013-06-02 22:07:00,
2013-06-02 18:22:00,78.8,74.6,29.59,West,270,1.7,-999.0,87,-99.99,,,0.10,Acu-Link.com,2013-06-02 22:22:00,
2013-06-02 18:37:00,78.1,73.9,29.59,South,180,0.0,-999.0,87,-99.99,,,0.10,Acu-Link.com,2013-06-02 22:37:00,
2013-06-02 18:52:00,76.8,73.3,29.60,SSW,202,3.7,-999.0,89,-99.99,,,0.10,Acu-Link.com,2013-06-02 22:52:00,
2013-06-02 19:07:00,76.1,73.6,29.61,NW,315,0.0,-999.0,92,-99.99,,,0.10,Acu-Link.com,2013-06-02 23:07:00,
2013-06-02 19:23:00,76.3,73.8,29.62,South,180,0.0,-999.0,92,-99.99,,,0.10,Acu-Link.com,2013-06-02 23:23:00,
2013-06-02 19:38:00,75.4,73.2,29.60,South,180,1.7,-999.0,93,-99.99,,,0.10,Acu-Link.com,2013-06-02 23:38:00,
2013-06-02 19:53:00,75.6,73.1,29.60,WNW,292,0.0,-999.0,92,-99.99,,,0.10,Acu-Link.com,2013-06-02 23:53:00,
2013-06-02 20:08:00,75.0,73.5,29.61,South,180,2.2,-999.0,95,-99.99,,,0.10,Acu-Link.com,2013-06-03 00:08:00,
2013-06-02 20:23:00,74.3,73.1,29.61,NW,315,0.0,-999.0,96,-99.99,,,0.10,Acu-Link.com,2013-06-03 00:23:00,
2013-06-02 20:38:00,73.2,72.3,29.62,SSW,202,0.0,-999.0,97,-99.99,,,0.10,Acu-Link.com,2013-06-03 00:38:00,
2013-06-02 20:53:00,72.7,72.1,29.63,SW,225,0.0,-999.0,98,-99.99,,,0.10,Acu-Link.com,2013-06-03 00:53:00,
2013-06-02 21:09:00,72.1,71.5,29.64,West,270,2.2,-999.0,98,-99.99,,,0.10,Acu-Link.com,2013-06-03 01:09:00,
2013-06-02 21:24:00,72.1,71.5,29.64,West,270,0.0,-999.0,98,-99.99,,,0.10,Acu-Link.com,2013-06-03 01:24:00,
2013-06-02 21:39:00,72.3,71.7,29.63,ESE,112,2.2,-999.0,98,-99.99,,,0.10,Acu-Link.com,2013-06-03 01:39:00,
2013-06-02 21:54:00,72.1,71.5,29.63,South,180,0.0,-999.0,98,-99.99,,,0.10,Acu-Link.com,2013-06-03 01:54:00,
2013-06-02 22:09:00,71.6,71.0,29.64,South,180,0.0,-999.0,98,-99.99,,,0.10,Acu-Link.com,2013-06-03 02:09:00,
2013-06-02 22:24:00,70.7,70.1,29.64,NNW,337,0.0,-999.0,98,-99.99,,,0.10,Acu-Link.com,2013-06-03 02:24:00,
2013-06-02 22:39:00,70.2,69.6,29.63,North,0,0.0,-999.0,98,-99.99,,,0.10,Acu-Link.com,2013-06-03 02:39:00,
2013-06-02 22:54:00,69.6,69.0,29.65,WSW,247,0.0,-999.0,98,-99.99,,,0.10,Acu-Link.com,2013-06-03 02:54:00,
2013-06-02 23:09:00,69.3,68.7,29.64,East,90,0.0,-999.0,98,-99.99,,,0.10,Acu-Link.com,2013-06-03 03:09:00,
2013-06-02 23:25:00,68.7,68.1,29.63,WNW,292,0.0,-999.0,98,-99.99,,,0.10,Acu-Link.com,2013-06-03 03:25:00,
2013-06-02 23:40:00,68.4,67.8,29.63,NNW,337,0.0,-999.0,98,-99.99,,,0.10,Acu-Link.com,2013-06-03 03:40:00,
2013-06-02 23:55:00,68.2,67.6,29.63,SSE,157,0.0,-999.0,98,-99.99,,,0.10,Acu-Link.com,2013-06-03 03:55:00,